Orbital Elements at Epoch 2459000.5 (2020-May-31.0) TDB
Reference: JPL 11 (heliocentric ecliptic J2000)
Element | Value | Uncertainty (1-sigma) | Units |
e | .103894453376165 | 6.3642e-08 | |
a | 2.705306461887526 | 2.9684e-08 | au |
q | 2.424240125814714 | 1.7706e-07 | au |
i | 2.56973437415991 | 7.3292e-06 | deg |
node | 346.1955066456601 | 0.00015073 | deg |
peri | 58.56695589927718 | 0.00015914 | deg |
M | 335.6854762479613 | 4.8932e-05 | deg |
tp | 2459110.270691079269 (2020-Sep-17.77069108) | 0.0002216 | TDB |
period | 1625.26106583616 4.45 | 2.675e-05 7.324e-08 | d yr |
n | .2215028757947808 | 3.6457e-09 | deg/d |
Q | 2.986372797960337 | 3.2768e-08 | au |
|
| | Orbit Determination Parameters
Additional Information
|